Volver al catálogo

STARLINK-6316

ActivoComunicacionesVLEO
NORAD 57335·PAYLOAD·🇺🇸 United States

Lanzado Jul 16, 2023 desde Cape Canaveral Space Force Station

Loading…

Próximos Pases (próximas 24 horas)

TLE

ActualizadoSource: CelesTrak SupGP

Época: Sep 14, 2026, 20:40 UTC

1 57335C 23099H   26257.86159722  .00013793  00000+0  49972-3 0  2571
2 57335  43.0025 260.9694 0001317 281.3001  97.0458 15.27561982    12

Sigue STARLINK-6316 en tiempo real con AllMySat

Download on the App Store